GPS BIIF-5 (39533 NORAD) Tracking and Keplerian Element Data

This shows tracking and keplerian element data for the satellite.

Feedback or suggestion? Click here.




ElementValue
Catalog39533
NameGPS BIIF-5
Epoch Orbit3530
Epoch Day350.98845142
Epoch Year2018
RAAN261.3301
Inclination53.991
Eccentricity0.0036118
Argument of Perigee191.8319
Mean Anonmoly168.1291
Mean Motion2.00565938
Decay Rate-1.6E-07
L11 39533U 14008A 18350.98845142 -.00000016 00000-0 00000+0 0 9991
L22 39533 53.9910 261.3301 0036118 191.8319 168.1291 2.00565938 35306

Live tracking and technical data element details for GPS BIIF-5 (NORAD 39533). GPS BIIF-5 can be tracked NOW for your location showing map with azimuth and elevation plus other details from your city location.

Track the satellite on the map from your city or location and see movement details for azimuth, elevation, latitude, longitude, range, height, and movement on the map or in text.







IsCatalogInMostPopularTable: catalog: 39533, numindb: 116
Update: records affected: 1



GetName: 39533 GPS BIIF-5

Hit Count: updated at: Tue, 18 Dec 2018 21:39:20 GMT